Weather History for Lexington, NE

Change the Weather History Date:

Tuesday, February 18, 2014

  Actual Average Record
Temperature  
Mean Temperature 44 °F -  
Max Temperature 63 °F 41 °F 63 °F (2014)
Min Temperature 24 °F 20 °F -5 °F (2006)
Degree Days  
Heating Degree Days 21    
Moisture  
Dew Point 21 °F    
Average Humidity 47    
Maximum Humidity 82    
Minimum Humidity 20    
Precipitation  
Precipitation 0.00 in - - ()
Sea Level Pressure  
Sea Level Pressure 29.80 in    
Wind  
Wind Speed 11 mph (WNW)    
Max Wind Speed 36 mph    
Max Gust Speed 45 mph    
Visibility 10 miles    
Events      
Averages and records for this station are not official NWS values.
T = Trace of Precipitation, MM = Missing Value Source: NWS Daily Summary

Daily Weather History Graph

Daily Weather History Graph

Search for Another Location

Airport:

Trip Planner

Search our weather history database for the weather conditions in past years. The results will help you decide how hot, cold, wet, or windy it might be!

Date:

Astronomy

Feb. 18, 2014 Rise Set
Actual Time 7:29 AM CST 6:17 PM CST
Civil Twilight 7:01 AM CST 6:45 PM CST
Nautical Twilight 6:29 AM CST 7:17 PM CST
Astronomical Twilight 5:57 AM CST 7:49 PM CST
Moon 10:14 PM CST (2/18) 9:00 AM CST (2/18)
Length of Visible Light 11h 44m
Length of Day
10h 48m
Waning Gibbous, 87% of the Moon is Illuminated
Feb 18
Waning Gibbous
Feb 22
Last Quarter
Mar 1
New
Mar 8
First Quarter
Mar 16
Full

Hourly Weather History & Observations

Time (CST) Temp. Windchill Dew Point Humidity Pressure Visibility Wind Dir Wind Speed Gust Speed Precip Events Conditions
12:15 AM 44.2 °F 38.0 °F 16.2 °F 32% 29.76 in 10.0 mi SW 12.7 mph - N/A   Clear
12:35 AM 42.8 °F - 16.3 °F 34% 29.76 in 10.0 mi Calm Calm - N/A   Clear
12:55 AM 41.4 °F 37.6 °F 15.6 °F 35% 29.76 in 10.0 mi West 5.8 mph - N/A   Clear
1:15 AM 36.9 °F 30.1 °F 17.6 °F 46% 29.75 in 10.0 mi SW 9.2 mph - N/A   Clear
1:35 AM 39.2 °F 35.0 °F 18.0 °F 42% 29.74 in 10.0 mi WSW 5.8 mph - N/A   Clear
1:55 AM 33.8 °F 27.7 °F 18.1 °F 53% 29.74 in 10.0 mi WNW 6.9 mph - N/A   Clear
2:15 AM 31.1 °F 25.4 °F 18.7 °F 60% 29.73 in 10.0 mi West 5.8 mph - N/A   Clear
2:35 AM 32.5 °F 27.1 °F 19.0 °F 58% 29.72 in 10.0 mi WSW 5.8 mph - N/A   Clear
2:55 AM 32.4 °F 27.9 °F 19.4 °F 59% 29.71 in 10.0 mi WSW 4.6 mph - N/A   Clear
3:15 AM 32.0 °F - 19.0 °F 59% 29.70 in 10.0 mi Calm Calm - N/A   Clear
3:35 AM 31.5 °F 28.1 °F 19.0 °F 60% 29.69 in 10.0 mi West 3.5 mph - N/A   Clear
3:55 AM 29.1 °F 20.0 °F 19.4 °F 67% 29.69 in 10.0 mi West 10.4 mph - N/A   Clear
4:15 AM 29.3 °F 20.8 °F 21.2 °F 72% 29.68 in 10.0 mi WNW 9.2 mph - N/A   Clear
4:35 AM 30.2 °F 21.9 °F 21.0 °F 69% 29.68 in 10.0 mi NW 9.2 mph - N/A   Clear
4:55 AM 32.4 °F 23.5 °F 21.2 °F 63% 29.68 in 10.0 mi NW 11.5 mph - N/A   Clear
5:15 AM 31.1 °F 23.7 °F 20.8 °F 66% 29.69 in 10.0 mi NW 8.1 mph - N/A   Clear
5:35 AM 30.0 °F 24.1 °F 20.8 °F 69% 29.69 in 10.0 mi NW 5.8 mph - N/A   Clear
5:55 AM 28.9 °F 21.9 °F 21.7 °F 74% 29.69 in 10.0 mi NW 6.9 mph - N/A   Clear
6:15 AM 30.4 °F 23.6 °F 23.5 °F 76% 29.68 in 10.0 mi WNW 6.9 mph - N/A   Clear
6:35 AM 28.8 °F 21.7 °F 22.8 °F 78% 29.68 in 10.0 mi WNW 6.9 mph - N/A   Clear
6:55 AM 28.4 °F 22.2 °F 22.8 °F 80% 29.67 in 10.0 mi WNW 5.8 mph - N/A   Clear
7:15 AM 28.4 °F 19.7 °F 23.5 °F 82% 29.67 in 10.0 mi West 9.2 mph - N/A   Clear
7:35 AM 30.0 °F 23.2 °F 23.0 °F 75% 29.66 in 10.0 mi West 6.9 mph - N/A   Clear
7:55 AM 30.4 °F 22.2 °F 23.2 °F 75% 29.67 in 10.0 mi West 9.2 mph - N/A   Clear
8:15 AM 32.0 °F 24.8 °F 24.8 °F 75% 29.69 in 10.0 mi WSW 8.1 mph - N/A   Clear
8:35 AM 34.3 °F 27.7 °F 25.7 °F 71% 29.69 in 10.0 mi West 8.1 mph - N/A   Clear
8:55 AM 36.7 °F 29.9 °F 26.4 °F 66% 29.70 in 10.0 mi West 9.2 mph - N/A   Clear
9:15 AM 40.5 °F 35.8 °F 27.0 °F 59% 29.70 in 10.0 mi West 6.9 mph - N/A   Clear
9:35 AM 43.5 °F 37.9 °F 26.4 °F 51% 29.71 in 10.0 mi West 10.4 mph - N/A   Clear
9:55 AM 45.7 °F 40.2 °F 26.6 °F 47% 29.71 in 10.0 mi West 11.5 mph - N/A   Scattered Clouds
10:15 AM 47.3 °F - 26.2 °F 44% 29.71 in 10.0 mi WNW 11.5 mph - N/A   Scattered Clouds
10:35 AM 56.8 °F - 24.3 °F 28% 29.72 in 10.0 mi WNW 24.2 mph 27.6 mph N/A   Clear
10:55 AM 56.3 °F - 24.1 °F 29% 29.73 in 10.0 mi WNW 17.3 mph - N/A   Clear
11:15 AM 56.3 °F - 22.3 °F 27% 29.74 in 10.0 mi NW 18.4 mph 26.5 mph N/A   Clear
11:35 AM 56.8 °F - 22.1 °F 26% 29.74 in 10.0 mi WNW 20.7 mph 26.5 mph N/A   Clear
11:55 AM 55.9 °F - 21.6 °F 26% 29.76 in 10.0 mi WNW 26.5 mph 32.2 mph N/A   Clear
12:15 PM 61.3 °F - 22.8 °F 23% 29.76 in 10.0 mi NW 31.1 mph 36.8 mph N/A   Clear
12:35 PM 63.3 °F - 23.0 °F 21% 29.74 in 10.0 mi NW 29.9 mph 36.8 mph N/A   Clear
12:55 PM 62.6 °F - 21.0 °F 20% 29.75 in 10.0 mi NNW 34.5 mph 42.6 mph N/A   Clear
1:15 PM 62.8 °F - 21.7 °F 21% 29.76 in 10.0 mi NW 26.5 mph 41.4 mph N/A   Clear
1:35 PM 62.6 °F - 21.2 °F 20% 29.77 in 10.0 mi NW 28.8 mph 41.4 mph N/A   Clear
1:55 PM 61.3 °F - 21.2 °F 21% 29.79 in 10.0 mi NW 35.7 mph 44.9 mph N/A   Clear
2:15 PM 60.1 °F - 23.0 °F 24% 29.80 in 10.0 mi NW 31.1 mph 41.4 mph N/A   Clear
2:35 PM 59.0 °F - 23.7 °F 26% 29.81 in 10.0 mi NNW 26.5 mph 42.6 mph N/A   Clear
2:55 PM 58.8 °F - 23.5 °F 26% 29.82 in 10.0 mi NW 24.2 mph 36.8 mph N/A   Clear
3:15 PM 57.9 °F - 23.7 °F 27% 29.83 in 10.0 mi NNW 25.3 mph 32.2 mph N/A   Clear
3:35 PM 57.7 °F - 24.3 °F 28% 29.84 in 10.0 mi NNW 21.9 mph 29.9 mph N/A   Clear
3:55 PM 57.6 °F - 23.2 °F 27% 29.85 in 10.0 mi NW 23.0 mph 32.2 mph N/A   Clear
4:15 PM 57.2 °F - 23.5 °F 27% 29.86 in 10.0 mi NW 20.7 mph - N/A   Clear
4:35 PM 56.3 °F - 22.1 °F 27% 29.87 in 10.0 mi NW 23.0 mph 28.8 mph N/A   Clear
4:55 PM 56.3 °F - 21.7 °F 26% 29.87 in 10.0 mi NW 19.6 mph 26.5 mph N/A   Clear
5:15 PM 55.4 °F - 20.3 °F 25% 29.89 in 10.0 mi NW 16.1 mph 25.3 mph N/A   Clear
5:35 PM 54.3 °F - 17.6 °F 24% 29.89 in 10.0 mi NW 17.3 mph 23.0 mph N/A   Clear
5:55 PM 51.6 °F - 17.4 °F 26% 29.90 in 10.0 mi NW 12.7 mph - N/A   Clear
6:15 PM 48.4 °F - 18.3 °F 30% 29.91 in 10.0 mi WNW 12.7 mph - N/A   Clear
6:35 PM 47.5 °F - 17.4 °F 30% 29.92 in 10.0 mi WNW 15.0 mph - N/A   Clear
6:55 PM 46.8 °F - 16.3 °F 30% 29.94 in 10.0 mi WNW 15.0 mph - N/A   Clear
7:15 PM 42.1 °F 35.2 °F 17.4 °F 37% 29.96 in 10.0 mi WNW 12.7 mph - N/A   Clear
7:35 PM 39.2 °F 32.0 °F 18.0 °F 42% 29.97 in 10.0 mi WNW 11.5 mph - N/A   Clear
7:55 PM 41.9 °F 34.6 °F 16.2 °F 35% 29.97 in 10.0 mi NW 13.8 mph - N/A   Clear
8:15 PM 40.1 °F 33.2 °F 16.0 °F 38% 29.97 in 10.0 mi NW 11.5 mph - N/A   Clear
8:35 PM 35.4 °F 27.8 °F 16.7 °F 47% 29.98 in 10.0 mi NW 10.4 mph - N/A   Clear
8:55 PM 35.2 °F 27.6 °F 17.4 °F 48% 29.99 in 10.0 mi WNW 10.4 mph - N/A   Clear
9:15 PM 32.0 °F 24.8 °F 17.8 °F 56% 30.00 in 10.0 mi WNW 8.1 mph - N/A   Clear
9:35 PM 30.7 °F 23.3 °F 17.4 °F 58% 30.00 in 10.0 mi WNW 8.1 mph - N/A   Clear
9:55 PM 29.3 °F 20.8 °F 18.5 °F 64% 30.00 in 10.0 mi WNW 9.2 mph - N/A   Clear
10:15 PM 29.5 °F 21.8 °F 18.7 °F 64% 29.99 in 10.0 mi WNW 8.1 mph - N/A   Clear
10:35 PM 27.1 °F - 19.0 °F 72% 29.99 in 10.0 mi Calm Calm - N/A   Clear
10:55 PM 27.5 °F 23.6 °F 18.3 °F 68% 29.99 in 10.0 mi NNW 3.5 mph - N/A   Clear
11:15 PM 26.1 °F - 18.3 °F 73% 29.99 in 10.0 mi Calm Calm - N/A   Clear
11:35 PM 25.9 °F 21.7 °F 18.7 °F 74% 29.99 in 10.0 mi NNW 3.5 mph - N/A   Clear
11:55 PM 24.8 °F - 18.7 °F 78% 29.98 in 10.0 mi Calm Calm - N/A   Clear